TimePDT,TemperatureF,Dew PointF,Humidity,Sea Level PressureIn,VisibilityMPH,Wind Direction,Wind SpeedMPH,Gust SpeedMPH,PrecipitationIn,Events,Conditions,WindDirDegrees,DateUTC
12:53 AM,54.0,44.1,69,29.94,10.0,Calm,Calm,-,N/A,,Clear,0,2012-10-08 07:53:00
1:53 AM,55.0,42.1,62,29.94,10.0,Calm,Calm,-,N/A,,Clear,0,2012-10-08 08:53:00
2:53 AM,54.0,41.0,62,29.94,10.0,Calm,Calm,-,N/A,,Clear,0,2012-10-08 09:53:00
3:53 AM,48.9,39.9,71,29.93,10.0,Calm,Calm,-,N/A,,Clear,0,2012-10-08 10:53:00
4:53 AM,50.0,41.0,71,29.95,10.0,Calm,Calm,-,N/A,,Clear,0,2012-10-08 11:53:00
5:53 AM,48.9,41.0,74,29.94,10.0,Calm,Calm,-,N/A,,Clear,0,2012-10-08 12:53:00
6:53 AM,50.0,41.0,71,29.95,10.0,SSE,3.5,-,N/A,,Clear,160,2012-10-08 13:53:00
7:53 AM,51.1,42.1,71,29.96,10.0,Calm,Calm,-,N/A,,Clear,0,2012-10-08 14:53:00
8:53 AM,55.0,44.1,67,29.97,10.0,Calm,Calm,-,N/A,,Clear,0,2012-10-08 15:53:00
9:53 AM,59.0,42.1,53,29.97,10.0,SSE,6.9,-,N/A,,Clear,160,2012-10-08 16:53:00
10:53 AM,62.1,42.1,48,29.97,10.0,South,3.5,-,N/A,,Clear,170,2012-10-08 17:53:00
11:53 AM,61.0,44.1,54,29.98,10.0,West,3.5,-,N/A,,Clear,280,2012-10-08 18:53:00
12:53 PM,64.0,45.0,50,29.97,10.0,WSW,5.8,-,N/A,,Clear,250,2012-10-08 19:53:00
1:53 PM,66.0,44.1,45,29.97,10.0,WSW,6.9,-,N/A,,Clear,250,2012-10-08 20:53:00
2:53 PM,66.9,41.0,39,29.96,10.0,WSW,5.8,-,N/A,,Clear,250,2012-10-08 21:53:00
3:53 PM,68.0,43.0,40,29.96,10.0,West,3.5,-,N/A,,Clear,270,2012-10-08 22:53:00
4:53 PM,68.0,43.0,40,29.96,10.0,WSW,4.6,-,N/A,,Clear,250,2012-10-08 23:53:00
5:53 PM,66.0,44.1,45,29.96,10.0,Calm,Calm,-,N/A,,Clear,0,2012-10-09 00:53:00
6:53 PM,62.1,45.0,53,29.97,10.0,Calm,Calm,-,N/A,,Clear,0,2012-10-09 01:53:00
7:53 PM,59.0,45.0,60,29.98,10.0,Calm,Calm,-,N/A,,Clear,0,2012-10-09 02:53:00
8:53 PM,57.0,45.0,64,30.00,10.0,Calm,Calm,-,N/A,,Clear,0,2012-10-09 03:53:00
9:53 PM,53.6,44.6,72,30.01,10.0,NNE,3.5,-,N/A,,Clear,30,2012-10-09 04:53:00
10:53 PM,52.0,46.0,80,30.03,10.0,Calm,Calm,-,N/A,,Clear,0,2012-10-09 05:53:00
11:53 PM,53.1,45.0,74,30.04,10.0,Calm,Calm,-,N/A,,Clear,0,2012-10-09 06:53:00